Weather History for Bilbao, Spain

Change the Weather History Date:

Saturday, August 10, 2013

  Actual Average Record
Temperature  
Mean Temperature 70 °F -  
Max Temperature 80 °F 77 °F 98 °F (2000)
Min Temperature 59 °F 60 °F 53 °F (2007)
Cooling Degree Days 4    
Growing Degree Days 20 (Base 50)    
Moisture  
Dew Point 61 °F    
Average Humidity 72    
Maximum Humidity 94    
Minimum Humidity 54    
Precipitation  
Precipitation 0.00 in - - ()
Sea Level Pressure  
Sea Level Pressure 30.25 in    
Wind  
Wind Speed 2 mph ()    
Max Wind Speed 8 mph    
Max Gust Speed 15 mph    
Visibility 6.2 miles    
Events      
Averages and records for this station are not official NWS values.
T = Trace of Precipitation, MM = Missing Value Source: Averaged Metar Reports

Daily Weather History Graph

Daily Weather History Graph

Search for Another Location

Airport:

Trip Planner

Search our weather history database for the weather conditions in past years. The results will help you decide how hot, cold, wet, or windy it might be!

Date:

Astronomy

Aug. 10, 2013 Rise Set
Actual Time 7:11 AM CEST 9:21 PM CEST
Civil Twilight 6:40 AM CEST 9:53 PM CEST
Nautical Twilight 6:01 AM CEST 10:31 PM CEST
Astronomical Twilight 5:18 AM CEST 11:14 PM CEST
Moon 10:51 AM CEST (8/10) 10:46 PM CEST (8/10)
Length of Visible Light 15h 13m
Length of Day
14h 10m
Waxing Crescent, 12% of the Moon is Illuminated
Aug 10
Waxing Crescent
Aug 14
First Quarter
Aug 21
Full
Aug 28
Last Quarter
Sep 5
New

Hourly Weather History & Observations

Time (CEST) Temp. Heat Index Dew Point Humidity Pressure Visibility Wind Dir Wind Speed Gust Speed Precip Events Conditions
12:00 AM 64.4 °F - 59.0 °F 83% 30.33 in - Calm Calm - N/A   Clear
12:30 AM 62.6 °F - 59.0 °F 88% 30.33 in - Variable 1.2 mph - N/A   Clear
5:00 AM 59.0 °F - 57.2 °F 94% 30.30 in - Variable 1.2 mph - N/A   Clear
5:30 AM 59.0 °F - 57.2 °F 94% 30.30 in - Variable 1.2 mph - N/A   Clear
6:00 AM 59.0 °F - 57.2 °F 94% 30.27 in - Variable 1.2 mph - N/A   Clear
6:30 AM 59.0 °F - 57.2 °F 94% 30.27 in - Variable 1.2 mph - N/A   Clear
7:00 AM 60.8 °F - 57.2 °F 88% 30.27 in - Variable 1.2 mph - N/A   Clear
7:30 AM 60.8 °F - 57.2 °F 88% 30.27 in 6.2 mi Variable 1.2 mph - N/A   Mostly Cloudy
8:00 AM 60.8 °F - 57.2 °F 88% 30.27 in 6.2 mi Calm Calm - N/A   Mostly Cloudy
8:30 AM 62.6 °F - 59.0 °F 88% 30.27 in 6.2 mi Variable 1.2 mph - N/A   Mostly Cloudy
9:00 AM 62.6 °F - 59.0 °F 88% 30.27 in 6.2 mi SE 3.5 mph - N/A   Mostly Cloudy
9:30 AM 66.2 °F - 59.0 °F 78% 30.27 in 6.2 mi Variable 2.3 mph - N/A   Mostly Cloudy
10:00 AM 68.0 °F - 59.0 °F 73% 30.27 in 6.2 mi Calm Calm - N/A   Mostly Cloudy
10:30 AM 69.8 °F - 59.0 °F 68% 30.27 in 6.2 mi Calm Calm - N/A   Mostly Cloudy
11:00 AM 73.4 °F - 60.8 °F 65% 30.27 in 6.2 mi Calm Calm - N/A   Mostly Cloudy
11:30 AM 73.4 °F - 60.8 °F 65% 30.27 in 6.2 mi Variable 1.2 mph - N/A   Mostly Cloudy
12:00 PM 75.2 °F - 60.8 °F 61% 30.27 in 6.2 mi Calm Calm - N/A   Mostly Cloudy
12:30 PM 77.0 °F - 62.6 °F 61% 30.27 in 6.2 mi Variable 1.2 mph - N/A   Mostly Cloudy
1:00 PM 77.0 °F - 60.8 °F 57% 30.27 in 6.2 mi Variable 1.2 mph - N/A   Mostly Cloudy
1:30 PM 78.8 °F - 60.8 °F 54% 30.27 in 6.2 mi Variable 2.3 mph - N/A   Mostly Cloudy
2:00 PM 77.0 °F - 62.6 °F 61% 30.27 in 6.2 mi North 6.9 mph - N/A   Mostly Cloudy
2:30 PM 77.0 °F - 64.4 °F 65% 30.24 in 6.2 mi NNE 5.8 mph - N/A   Mostly Cloudy
3:00 PM 77.0 °F - 64.4 °F 65% 30.24 in 6.2 mi NE 6.9 mph - N/A   Mostly Cloudy
3:30 PM 78.8 °F - 62.6 °F 57% 30.24 in 6.2 mi NE 5.8 mph - N/A   Mostly Cloudy
4:00 PM 78.8 °F - 64.4 °F 61% 30.24 in 6.2 mi Variable 3.5 mph 15.0 mph N/A   Scattered Clouds
4:30 PM 78.8 °F - 64.4 °F 61% 30.21 in 6.2 mi NNE 6.9 mph - N/A   Scattered Clouds
5:00 PM 78.8 °F - 62.6 °F 57% 30.21 in 6.2 mi NE 6.9 mph - N/A   Scattered Clouds
5:30 PM 80.6 °F 81.8 °F 62.6 °F 54% 30.21 in 6.2 mi NE 5.8 mph - N/A   Scattered Clouds
6:00 PM 78.8 °F - 64.4 °F 61% 30.21 in 6.2 mi NNE 6.9 mph - N/A   Scattered Clouds
6:30 PM 77.0 °F - 64.4 °F 65% 30.21 in 6.2 mi NE 6.9 mph - N/A   Scattered Clouds
7:00 PM 78.8 °F - 64.4 °F 61% 30.21 in 6.2 mi ENE 6.9 mph - N/A   Scattered Clouds
7:30 PM 78.8 °F - 64.4 °F 61% 30.21 in 6.2 mi ENE 5.8 mph - N/A   Partly Cloudy
8:00 PM 77.0 °F - 62.6 °F 61% 30.21 in 6.2 mi ENE 5.8 mph - N/A   Partly Cloudy
8:30 PM 75.2 °F - 62.6 °F 65% 30.21 in 6.2 mi NE 6.9 mph - N/A   Partly Cloudy
9:00 PM 73.4 °F - 62.6 °F 69% 30.21 in 6.2 mi East 4.6 mph - N/A   Partly Cloudy
9:30 PM 71.6 °F - 62.6 °F 73% 30.21 in 6.2 mi ESE 8.1 mph - N/A   Partly Cloudy
10:00 PM 71.6 °F - 62.6 °F 73% 30.21 in 6.2 mi ESE 3.5 mph - N/A   Partly Cloudy
10:30 PM 69.8 °F - 62.6 °F 78% 30.24 in 6.2 mi ESE 5.8 mph - N/A   Partly Cloudy
11:00 PM 68.0 °F - 60.8 °F 78% 30.24 in 6.2 mi ESE 3.5 mph - N/A   Partly Cloudy
11:30 PM 68.0 °F - 62.6 °F 83% 30.21 in 6.2 mi Variable 1.2 mph - N/A   Partly Cloudy